This demonstration page uses our WeatherBlox Daily Observations layout. Learn more.

Hourly Observations for December 4, 2017

Temp ( °F °C ) Dew Point ( °F °C ) Humidity (%) Winds ( mph kmh ) Pressure ( in mb ) Visibility ( mi km ) Precip ( " mm )
12:15 am 00:15 Clear 45 7 43 6.1 94 94 S 8 13 29.47 998 10 16.09344 0 0
12:35 am 00:35 Clear 45 7 42 5.6 91 91 S 7 11 29.47 998 10 16.09344 0 0
12:55 am 00:55 Clear 46 8 44 6.5 90 90 S 10 17 29.44 997 10 16.09344 0 0
1:15 am 01:15 Clear 46 7.7 43 6.1 90 90 S 7 11 29.41 996 10 16.09344 0 0
1:35 am 01:35 Clear 45 7.2 43 6.1 93 93 S 8 13 29.41 996 10 16.09344 0 0
1:55 am 01:55 Clear 46 7.8 43 6 89 89 S 10 17 29.41 996 10 16.09344 0 0
2:15 am 02:15 Clear 48 8.7 42 5.3 79 79 SSW 7 11 29.41 996 10 16.09344 0 0
2:35 am 02:35 Clear 47 8.5 41 5 79 79 SSW 10 17 29.41 996 10 16.09344 0 0
2:55 am 02:55 Clear 47 8.1 40 4.5 78 78 SW 8 13 29.44 997 10 16.09344 0 0
3:15 am 03:15 Clear 45 7.4 39 4 79 79 SSW 7 11 29.44 997 10 16.09344 0 0
3:35 am 03:35 Clear 45 7 38 3.5 79 79 SSW 8 13 29.41 996 10 16.09344 0 0
3:55 am 03:55 Clear 43 5.9 38 3.1 82 82 SW 8 13 29.47 998 10 16.09344 0 0
4:15 am 04:15 Clear 41 5.1 37 2.8 85 85 WSW 7 11 29.47 998 10 16.09344 0 0
4:35 am 04:35 Clear 41 5.1 37 2.8 85 85 WSW 9 15 29.47 998 10 16.09344 0 0
4:55 am 04:55 Clear 42 5.7 37 3 83 83 WNW 9 15 29.47 998 10 16.09344 0 0
5:15 am 05:15 Clear 39 4 36 2.2 88 88 WNW 7 11 29.47 998 10 16.09344 0 0
5:35 am 05:35 Clear 40 4.3 36 2.2 86 86 NW 12 19 29.5 999 10 16.09344 0 0
5:55 am 05:55 Clear 40 4.2 36 2.1 86 86 WNW 10 17 29.53 1000 10 16.09344 0 0
6:15 am 06:15 Clear 38 3.5 35 1.8 89 89 WNW 10 17 29.53 1000 10 16.09344 0 0
6:35 am 06:35 Clear 39 3.7 35 1.7 87 87 NW 12 19 29.56 1001 10 16.09344 0 0
6:55 am 06:55 Clear 39 4 35 1.6 85 85 WNW 13 20 29.59 1002 10 16.09344 0 0
7:10 am 07:10 Clear 40 4.3 35 1.5 82 82 WNW 12 19 29.59 1002 10 16.09344 0 0
7:35 am 07:35 Clear 39 3.7 34 1.1 83 83 WNW 13 20 29.62 1003 10 16.09344 0 0
7:55 am 07:55 Sunny 40 4.4 34 1.1 79 79 NW 13 20 29.62 1003 10 16.09344 0 0
8:15 am 08:15 Sunny 40 4.2 34 1 80 80 WNW 9 15 29.65 1004 10 16.09344 0 0
8:35 am 08:35 Sunny 41 5.1 35 1.5 78 78 WNW 9 15 29.65 1004 10 16.09344 0 0
8:55 am 08:55 Sunny 42 5.8 35 1.8 76 76 WNW 15 24 29.65 1004 10 16.09344 0 0
9:15 am 09:15 Sunny 45 7 36 2.2 72 72 WNW 24 39 29.65 1004 10 16.09344 0 0
9:35 am 09:35 Sunny 44 6.5 34 1.2 69 69 NW 25 41 29.65 1004 10 16.09344 0 0
9:55 am 09:55 Sunny 43 6.1 33 0.8 69 69 NW 24 39 29.68 1005 10 16.09344 0 0
10:15 am 10:15 Sunny 42 5.7 31 -0.4 65 65 NW 24 39 29.74 1007 10 16.09344 0 0
10:35 am 10:35 Sunny 43 6.1 32 0 65 65 NW 23 37 29.77 1008 10 16.09344 0 0
10:55 am 10:55 Sunny 43 5.9 32 -0.2 65 65 NW 24 39 29.77 1008 10 16.09344 0 0
11:15 am 11:15 Partly Cloudy 42 5.8 31 -0.4 65 65 NW 22 35 29.77 1008 10 16.09344 0 0
11:35 am 11:35 Mostly Cloudy 44 6.6 32 0 63 63 WNW 24 39 29.8 1009 10 16.09344 0 0
11:55 am 11:55 Cloudy 42 5.8 31 -0.3 65 65 NW 24 39 29.8 1009 10 16.09344 0 0
12:15 pm 12:15 Cloudy 42 5.7 31 -0.5 65 65 NW 29 46 29.8 1009 10 16.09344 0 0
12:35 pm 12:35 Cloudy 41 5.1 31 -0.6 67 67 WNW 29 46 29.83 1010 10 16.09344 0 0
12:55 pm 12:55 Cloudy 40 4.7 30 -1.2 66 66 NW 29 46 29.83 1010 10 16.09344 0 0
1:15 pm 13:15 Cloudy 40 4.6 29 -1.9 63 63 WNW 28 44 29.83 1010 10 16.09344 0 0
1:35 pm 13:35 Mostly Cloudy 40 4.5 27 -2.7 60 60 NW 29 46 29.83 1010 10 16.09344 0 0
1:55 pm 13:55 Cloudy 40 4.6 27 -3 58 58 NW 43 69 29.83 1010 10 16.09344 0 0
2:15 pm 14:15 Mostly Cloudy 39 3.7 26 -3.6 59 59 NW 24 39 29.88 1012 10 16.09344 0 0
2:35 pm 14:35 Mostly Cloudy 38 3.3 25 -4 59 59 NW 35 56 29.91 1013 10 16.09344 0 0
2:55 pm 14:55 Mostly Cloudy 38 3.1 25 -3.9 60 60 NW 35 56 29.94 1014 10 16.09344 0 0
3:15 pm 15:15 Partly Cloudy 37 3 24 -4.5 58 58 NW 36 57 29.94 1014 7 11.265408 0 0
3:35 pm 15:35 Mostly Cloudy 36 2 25 -4.1 64 64 NNW 29 46 29.97 1015 10 16.09344 0 0
3:55 pm 15:55 Mostly Cloudy 35 1.9 24 -4.7 62 62 NW 32 52 30.03 1017 10 16.09344 0 0
4:15 pm 16:15 Partly Cloudy 35 1.6 22 -5.8 58 58 NW 35 56 30.06 1018 10 16.09344 0 0
4:35 pm 16:35 Sunny 35 1.5 18 -7.6 51 51 NW 25 41 30.06 1018 10 16.09344 0 0
4:55 pm 16:55 Sunny 33 0.8 9 -12.6 36 36 NW 40 65 30.06 1018 10 16.09344 0 0
5:15 pm 17:15 Clear 32 0 10 -12.3 39 39 NW 32 52 30.09 1019 10 16.09344 0 0
5:35 pm 17:35 Clear 31 -0.7 11 -11.7 44 44 NW 18 30 30.15 1021 10 16.09344 0 0
5:55 pm 17:55 Clear 29 -1.5 10 -12.2 44 44 NW 29 46 30.15 1021 10 16.09344 0 0
6:15 pm 18:15 Clear 29 -1.5 6 -14.4 37 37 NW 30 48 30.18 1022 10 16.09344 0 0
6:35 pm 18:35 Clear 28 -2 6 -14.2 39 39 NW 24 39 30.18 1022 10 16.09344 0 0
6:55 pm 18:55 Clear 28 -2.4 6 -14.2 40 40 NNW 18 30 30.21 1023 10 16.09344 0 0
7:15 pm 19:15 Clear 27 -2.8 7 -13.9 43 43 NW 15 24 30.24 1024 10 16.09344 0 0
7:35 pm 19:35 Clear 27 -3 8 -13.6 44 44 NW 16 26 30.27 1025 10 16.09344 0 0
7:55 pm 19:55 Clear 26 -3.2 8 -13.6 45 45 NW 16 26 30.27 1025 10 16.09344 0 0
8:15 pm 20:15 Clear 26 -3.6 7 -13.7 46 46 NW 16 26 30.27 1025 10 16.09344 0 0
8:35 pm 20:35 Clear 25 -4 7 -13.7 47 47 NW 14 22 30.27 1025 10 16.09344 0 0
8:55 pm 20:55 Clear 25 -4.1 7 -13.8 47 47 NW 13 20 30.27 1025 10 16.09344 0 0
9:15 pm 21:15 Clear 23 -5 7 -13.8 50 50 NW 10 17 30.27 1025 10 16.09344 0 0
9:35 pm 21:35 Clear 22 -5.5 8 -13.6 53 53 WNW 12 19 30.3 1026 10 16.09344 0 0
9:55 pm 21:55 Clear 22 -5.6 7 -13.9 52 52 WNW 9 15 30.3 1026 10 16.09344 0 0
10:15 pm 22:15 Clear 21 -6.2 7 -14 54 54 WNW 10 17 30.3 1026 10 16.09344 0 0
10:35 pm 22:35 Clear 21 -6.2 6 -14.3 53 53 WNW 10 17 30.33 1027 10 16.09344 0 0
10:55 pm 22:55 Clear 21 -6.2 6 -14.5 52 52 WNW 9 15 30.33 1027 10 16.09344 0 0
11:15 pm 23:15 Clear 18 -7.7 6 -14.3 60 60 NW 9 15 30.33 1027 10 16.09344 0 0
11:35 pm 23:35 Clear 18 -7.6 6 -14.3 59 59 WNW 7 11 30.33 1027 10 16.09344 0 0
11:55 pm 23:55 Clear 17 -8.3 5 -14.8 60 60 WNW 7 11 30.36 1028 10 16.09344 0 0

Powered by AerisWeather